Time,TemperatureF,DewpointF,PressureIn,WindDirection,WindDirectionDegrees,WindSpeedMPH,WindSpeedGustMPH,Humidity,HourlyPrecipIn,Conditions,Clouds,dailyrainin,SoftwareType,DateUTC
2013-07-12 00:00:00,63.8,62.5,29.07,NNW,337,0.0,2.0,95,0.00,,,0.00,Rainwise IP-100,2013-07-12 04:00:00,
2013-07-12 00:01:00,63.7,62.0,29.07,NNW,337,2.0,2.0,95,0.00,,,0.00,Rainwise IP-100,2013-07-12 04:01:00,
2013-07-12 00:02:00,63.7,62.0,29.07,NW,315,2.0,2.0,95,0.00,,,0.00,Rainwise IP-100,2013-07-12 04:02:00,
2013-07-12 00:05:00,63.9,62.5,29.07,NW,315,1.0,2.0,95,0.00,,,0.00,Rainwise IP-100,2013-07-12 04:05:00,
2013-07-12 00:06:00,63.9,62.5,29.07,NW,315,0.0,2.0,95,0.00,,,0.00,Rainwise IP-100,2013-07-12 04:06:00,
2013-07-12 00:09:00,64.1,62.5,29.08,NW,315,1.0,2.0,95,0.00,,,0.00,Rainwise IP-100,2013-07-12 04:09:00,
2013-07-12 00:14:00,64.8,63.0,29.08,West,270,1.0,2.0,93,0.00,,,0.00,Rainwise IP-100,2013-07-12 04:14:00,
2013-07-12 00:19:00,64.9,62.5,29.08,NW,315,1.0,2.0,92,0.00,,,0.00,Rainwise IP-100,2013-07-12 04:19:00,
2013-07-12 00:24:00,64.8,63.0,29.09,North,360,1.0,2.0,93,0.00,,,0.00,Rainwise IP-100,2013-07-12 04:24:00,
2013-07-12 00:30:00,64.5,62.5,29.09,North,360,0.0,3.0,94,0.00,,,0.00,Rainwise IP-100,2013-07-12 04:30:00,
2013-07-12 00:35:00,64.4,62.5,29.09,North,360,0.0,1.0,94,0.00,,,0.00,Rainwise IP-100,2013-07-12 04:35:00,
2013-07-12 00:40:00,64.7,62.5,29.09,NW,315,1.0,2.0,93,0.00,,,0.00,Rainwise IP-100,2013-07-12 04:40:00,
2013-07-12 00:45:00,64.7,62.5,29.09,NW,315,0.0,2.0,93,0.00,,,0.00,Rainwise IP-100,2013-07-12 04:45:00,
2013-07-12 00:50:00,64.7,62.5,29.09,NW,315,2.0,2.0,93,0.00,,,0.00,Rainwise IP-100,2013-07-12 04:50:00,
2013-07-12 00:55:00,64.6,62.5,29.09,NW,315,1.0,2.0,93,0.00,,,0.00,Rainwise IP-100,2013-07-12 04:55:00,
2013-07-12 01:00:00,64.4,62.5,29.09,NW,315,0.0,1.0,94,0.00,,,0.00,Rainwise IP-100,2013-07-12 05:00:00,
2013-07-12 01:05:00,63.9,62.5,29.09,NW,315,0.0,0.0,95,0.00,,,0.00,Rainwise IP-100,2013-07-12 05:05:00,
2013-07-12 01:10:00,63.4,62.5,29.09,NW,315,0.0,0.0,97,0.00,,,0.00,Rainwise IP-100,2013-07-12 05:10:00,
2013-07-12 01:15:00,62.9,62.0,29.09,NW,315,0.0,0.0,97,0.00,,,0.00,Rainwise IP-100,2013-07-12 05:15:00,
2013-07-12 01:20:00,62.5,62.0,29.09,SSW,202,2.0,2.0,98,0.00,,,0.00,Rainwise IP-100,2013-07-12 05:20:00,
2013-07-12 01:25:00,62.1,61.5,29.09,SSW,202,2.0,2.0,98,0.00,,,0.00,Rainwise IP-100,2013-07-12 05:25:00,
2013-07-12 01:31:00,61.9,61.5,29.09,SSW,202,2.0,2.0,98,0.00,,,0.00,Rainwise IP-100,2013-07-12 05:31:00,
2013-07-12 01:36:00,61.8,61.5,29.08,SSW,202,1.0,2.0,98,0.00,,,0.00,Rainwise IP-100,2013-07-12 05:36:00,
2013-07-12 01:41:00,61.7,61.0,29.08,SSW,202,2.0,2.0,98,0.00,,,0.00,Rainwise IP-100,2013-07-12 05:41:00,
2013-07-12 01:46:00,61.6,61.0,29.08,SSW,202,1.0,2.0,98,0.00,,,0.00,Rainwise IP-100,2013-07-12 05:46:00,
2013-07-12 01:51:00,61.6,61.0,29.08,SSW,202,1.0,2.0,98,0.00,,,0.00,Rainwise IP-100,2013-07-12 05:51:00,
2013-07-12 01:56:00,61.6,61.0,29.08,SSW,202,0.0,2.0,98,0.00,,,0.00,Rainwise IP-100,2013-07-12 05:56:00,
2013-07-12 02:01:00,61.4,61.0,29.08,SSW,202,0.0,0.0,98,0.00,,,0.00,Rainwise IP-100,2013-07-12 06:01:00,
2013-07-12 02:06:00,61.4,61.0,29.07,SSW,202,0.0,0.0,98,0.00,,,0.00,Rainwise IP-100,2013-07-12 06:06:00,
2013-07-12 02:11:00,61.1,60.5,29.07,SSW,202,0.0,0.0,98,0.00,,,0.00,Rainwise IP-100,2013-07-12 06:11:00,
2013-07-12 02:16:00,60.9,60.5,29.08,SSW,202,1.0,2.0,98,0.00,,,0.00,Rainwise IP-100,2013-07-12 06:16:00,
2013-07-12 02:21:00,60.8,60.5,29.07,SSW,202,2.0,2.0,98,0.00,,,0.00,Rainwise IP-100,2013-07-12 06:21:00,
2013-07-12 02:26:00,60.7,60.0,29.08,SSW,202,0.0,2.0,98,0.00,,,0.00,Rainwise IP-100,2013-07-12 06:26:00,
2013-07-12 02:32:00,60.5,60.0,29.08,SSW,202,0.0,0.0,98,0.00,,,0.00,Rainwise IP-100,2013-07-12 06:32:00,
2013-07-12 02:37:00,60.4,60.0,29.09,SSW,202,0.0,0.0,98,0.00,,,0.00,Rainwise IP-100,2013-07-12 06:37:00,
2013-07-12 02:42:00,60.6,60.0,29.09,SSW,202,0.0,0.0,98,0.00,,,0.00,Rainwise IP-100,2013-07-12 06:42:00,
2013-07-12 02:47:00,60.6,60.0,29.09,SSW,202,0.0,2.0,98,0.00,,,0.00,Rainwise IP-100,2013-07-12 06:47:00,
2013-07-12 02:52:00,60.6,60.0,29.09,SSW,202,2.0,2.0,98,0.00,,,0.00,Rainwise IP-100,2013-07-12 06:52:00,
2013-07-12 02:57:00,60.9,60.5,29.09,SE,135,1.0,2.0,98,0.00,,,0.00,Rainwise IP-100,2013-07-12 06:57:00,
2013-07-12 03:02:00,60.7,60.0,29.09,SE,135,2.0,2.0,98,0.00,,,0.00,Rainwise IP-100,2013-07-12 07:02:00,
2013-07-12 03:07:00,60.8,60.5,29.09,SE,135,1.0,2.0,98,0.00,,,0.00,Rainwise IP-100,2013-07-12 07:07:00,
2013-07-12 03:12:00,60.8,60.5,29.10,SE,135,1.0,2.0,98,0.00,,,0.00,Rainwise IP-100,2013-07-12 07:12:00,
2013-07-12 03:17:00,60.8,60.5,29.10,SE,135,1.0,2.0,98,0.00,,,0.00,Rainwise IP-100,2013-07-12 07:17:00,
2013-07-12 03:22:00,60.8,60.5,29.10,SE,135,1.0,2.0,98,0.00,,,0.00,Rainwise IP-100,2013-07-12 07:22:00,
2013-07-12 03:27:00,60.9,60.5,29.10,SE,135,0.0,2.0,98,0.00,,,0.00,Rainwise IP-100,2013-07-12 07:27:00,
2013-07-12 03:33:00,60.9,60.5,29.10,SE,135,0.0,1.0,98,0.00,,,0.00,Rainwise IP-100,2013-07-12 07:33:00,
2013-07-12 03:38:00,60.6,60.0,29.10,SE,135,0.0,0.0,98,0.00,,,0.00,Rainwise IP-100,2013-07-12 07:38:00,
2013-07-12 03:43:00,60.8,60.5,29.10,SE,135,1.0,2.0,98,0.00,,,0.00,Rainwise IP-100,2013-07-12 07:43:00,
2013-07-12 03:48:00,60.7,60.0,29.11,SE,135,1.0,1.0,98,0.00,,,0.00,Rainwise IP-100,2013-07-12 07:48:00,
2013-07-12 03:53:00,60.4,60.0,29.11,SE,135,2.0,2.0,98,0.00,,,0.00,Rainwise IP-100,2013-07-12 07:53:00,
2013-07-12 03:58:00,60.3,60.0,29.11,SSE,157,2.0,2.0,98,0.00,,,0.00,Rainwise IP-100,2013-07-12 07:58:00,
2013-07-12 04:03:00,60.4,60.0,29.11,SSE,157,1.0,2.0,98,0.00,,,0.00,Rainwise IP-100,2013-07-12 08:03:00,
2013-07-12 04:08:00,60.5,60.0,29.11,SSE,157,0.0,2.0,98,0.00,,,0.00,Rainwise IP-100,2013-07-12 08:08:00,
2013-07-12 04:13:00,60.3,60.0,29.11,SSE,157,0.0,0.0,98,0.00,,,0.00,Rainwise IP-100,2013-07-12 08:13:00,
2013-07-12 04:18:00,59.9,59.5,29.11,SSE,157,0.0,0.0,98,0.00,,,0.00,Rainwise IP-100,2013-07-12 08:18:00,
2013-07-12 04:23:00,60.0,59.5,29.11,SSE,157,2.0,2.0,98,0.00,,,0.00,Rainwise IP-100,2013-07-12 08:23:00,
2013-07-12 04:29:00,60.1,59.5,29.11,SSE,157,0.0,2.0,98,0.00,,,0.00,Rainwise IP-100,2013-07-12 08:29:00,
2013-07-12 04:34:00,59.9,59.5,29.11,SSE,157,0.0,0.0,98,0.00,,,0.00,Rainwise IP-100,2013-07-12 08:34:00,
2013-07-12 04:39:00,59.6,59.0,29.11,SSE,157,0.0,0.0,98,0.00,,,0.00,Rainwise IP-100,2013-07-12 08:39:00,
2013-07-12 04:44:00,59.6,59.0,29.11,SSE,157,0.0,0.0,98,0.00,,,0.00,Rainwise IP-100,2013-07-12 08:44:00,
2013-07-12 04:49:00,59.7,59.0,29.11,SSE,157,0.0,0.0,98,0.00,,,0.00,Rainwise IP-100,2013-07-12 08:49:00,
2013-07-12 04:54:00,59.7,59.0,29.11,SSE,157,2.0,2.0,98,0.00,,,0.00,Rainwise IP-100,2013-07-12 08:54:00,
2013-07-12 04:59:00,59.5,59.0,29.11,SSE,157,2.0,2.0,98,0.00,,,0.00,Rainwise IP-100,2013-07-12 08:59:00,
2013-07-12 05:04:00,59.4,59.0,29.11,SSE,157,0.0,2.0,98,0.00,,,0.00,Rainwise IP-100,2013-07-12 09:04:00,
2013-07-12 05:09:00,59.6,59.0,29.11,SSE,157,0.0,0.0,98,0.00,,,0.00,Rainwise IP-100,2013-07-12 09:09:00,
2013-07-12 05:14:00,59.7,59.0,29.12,SSE,157,0.0,0.0,98,0.00,,,0.00,Rainwise IP-100,2013-07-12 09:14:00,
2013-07-12 05:19:00,59.9,59.5,29.12,SSE,157,0.0,0.0,98,0.00,,,0.00,Rainwise IP-100,2013-07-12 09:19:00,
2013-07-12 05:24:00,59.9,59.5,29.12,SSE,157,0.0,0.0,98,0.00,,,0.00,Rainwise IP-100,2013-07-12 09:24:00,
2013-07-12 05:30:00,59.9,59.5,29.13,SSE,157,0.0,0.0,98,0.00,,,0.00,Rainwise IP-100,2013-07-12 09:30:00,
2013-07-12 05:35:00,59.7,59.0,29.13,SSE,157,0.0,0.0,98,0.00,,,0.00,Rainwise IP-100,2013-07-12 09:35:00,
2013-07-12 05:40:00,59.3,59.0,29.13,SSE,157,2.0,2.0,98,0.00,,,0.00,Rainwise IP-100,2013-07-12 09:40:00,
2013-07-12 05:45:00,59.0,58.0,29.13,SSE,157,1.0,2.0,98,0.00,,,0.00,Rainwise IP-100,2013-07-12 09:45:00,
2013-07-12 05:50:00,59.1,58.0,29.13,SSE,157,0.0,2.0,98,0.00,,,0.00,Rainwise IP-100,2013-07-12 09:50:00,
2013-07-12 05:55:00,59.3,59.0,29.13,SSE,157,0.0,1.0,98,0.00,,,0.00,Rainwise IP-100,2013-07-12 09:55:00,
2013-07-12 06:00:00,59.4,59.0,29.14,SSE,157,0.0,0.0,98,0.00,,,0.00,Rainwise IP-100,2013-07-12 10:00:00,
2013-07-12 06:05:00,59.6,59.0,29.14,SSE,157,0.0,0.0,98,0.00,,,0.00,Rainwise IP-100,2013-07-12 10:05:00,
2013-07-12 06:10:00,59.7,59.0,29.14,SSE,157,0.0,0.0,98,0.00,,,0.00,Rainwise IP-100,2013-07-12 10:10:00,
2013-07-12 06:15:00,59.8,59.5,29.14,SSE,157,0.0,0.0,98,0.00,,,0.00,Rainwise IP-100,2013-07-12 10:15:00,
2013-07-12 06:20:00,59.6,59.0,29.15,SSE,157,0.0,0.0,98,0.00,,,0.00,Rainwise IP-100,2013-07-12 10:20:00,
2013-07-12 06:25:00,59.3,59.0,29.15,SSE,157,0.0,0.0,98,0.00,,,0.00,Rainwise IP-100,2013-07-12 10:25:00,
2013-07-12 06:31:00,59.5,59.0,29.15,SSE,157,1.0,2.0,98,0.00,,,0.00,Rainwise IP-100,2013-07-12 10:31:00,
2013-07-12 06:36:00,59.7,59.0,29.15,SSE,157,0.0,2.0,98,0.00,,,0.00,Rainwise IP-100,2013-07-12 10:36:00,
2013-07-12 06:41:00,59.8,59.5,29.15,SSE,157,0.0,0.0,98,0.00,,,0.00,Rainwise IP-100,2013-07-12 10:41:00,
2013-07-12 06:46:00,59.9,59.5,29.15,SSE,157,0.0,0.0,98,0.00,,,0.00,Rainwise IP-100,2013-07-12 10:46:00,
2013-07-12 06:51:00,60.0,59.5,29.15,SSE,157,0.0,0.0,98,0.00,,,0.00,Rainwise IP-100,2013-07-12 10:51:00,
2013-07-12 06:56:00,60.3,60.0,29.15,SSE,157,0.0,0.0,98,0.00,,,0.00,Rainwise IP-100,2013-07-12 10:56:00,
2013-07-12 07:01:00,60.6,60.0,29.15,SSE,157,0.0,0.0,98,0.00,,,0.00,Rainwise IP-100,2013-07-12 11:01:00,
2013-07-12 07:06:00,60.9,60.5,29.16,SSE,157,0.0,0.0,98,0.00,,,0.00,Rainwise IP-100,2013-07-12 11:06:00,
2013-07-12 07:11:00,61.3,61.0,29.17,SSE,157,0.0,0.0,98,0.00,,,0.00,Rainwise IP-100,2013-07-12 11:11:00,
2013-07-12 07:16:00,61.8,61.5,29.17,SE,135,0.0,2.0,98,0.00,,,0.00,Rainwise IP-100,2013-07-12 11:16:00,
2013-07-12 07:21:00,62.3,62.0,29.17,ENE,67,0.0,1.0,98,0.00,,,0.00,Rainwise IP-100,2013-07-12 11:21:00,
2013-07-12 07:26:00,62.8,62.5,29.18,ENE,67,0.0,2.0,98,0.00,,,0.00,Rainwise IP-100,2013-07-12 11:26:00,
2013-07-12 07:32:00,62.9,62.5,29.18,ENE,67,0.0,1.0,98,0.00,,,0.00,Rainwise IP-100,2013-07-12 11:32:00,
2013-07-12 07:37:00,63.1,62.5,29.19,ENE,67,1.0,2.0,98,0.00,,,0.00,Rainwise IP-100,2013-07-12 11:37:00,
2013-07-12 07:42:00,63.1,62.5,29.19,ENE,67,1.0,2.0,98,0.00,,,0.00,Rainwise IP-100,2013-07-12 11:42:00,
2013-07-12 07:47:00,63.3,63.0,29.19,ENE,67,0.0,1.0,98,0.00,,,0.00,Rainwise IP-100,2013-07-12 11:47:00,
2013-07-12 07:52:00,63.5,63.0,29.19,ENE,67,0.0,1.0,98,0.00,,,0.00,Rainwise IP-100,2013-07-12 11:52:00,
2013-07-12 07:57:00,63.6,63.0,29.19,ENE,67,0.0,2.0,98,0.00,,,0.00,Rainwise IP-100,2013-07-12 11:57:00,
2013-07-12 08:02:00,63.8,63.5,29.19,ENE,67,0.0,2.0,98,0.00,,,0.00,Rainwise IP-100,2013-07-12 12:02:00,
2013-07-12 08:07:00,63.9,63.5,29.20,East,90,0.0,2.0,98,0.00,,,0.00,Rainwise IP-100,2013-07-12 12:07:00,
2013-07-12 08:12:00,64.1,63.5,29.20,NNE,22,1.0,2.0,98,0.00,,,0.00,Rainwise IP-100,2013-07-12 12:12:00,
2013-07-12 08:17:00,64.4,64.0,29.20,NE,45,1.0,2.0,98,0.00,,,0.00,Rainwise IP-100,2013-07-12 12:17:00,
2013-07-12 08:22:00,64.6,64.0,29.20,ESE,112,3.0,3.0,98,0.00,,,0.00,Rainwise IP-100,2013-07-12 12:22:00,
2013-07-12 08:27:00,64.7,64.0,29.20,NW,315,1.0,3.0,98,0.00,,,0.00,Rainwise IP-100,2013-07-12 12:27:00,
2013-07-12 08:33:00,65.1,64.5,29.21,NNE,22,2.0,2.0,98,0.00,,,0.00,Rainwise IP-100,2013-07-12 12:33:00,
2013-07-12 08:38:00,65.3,65.0,29.21,East,90,0.0,4.0,98,0.00,,,0.00,Rainwise IP-100,2013-07-12 12:38:00,
2013-07-12 08:43:00,65.5,65.0,29.21,ENE,67,0.0,2.0,98,0.00,,,0.00,Rainwise IP-100,2013-07-12 12:43:00,
2013-07-12 08:48:00,65.7,65.0,29.22,NNE,22,0.0,3.0,98,0.00,,,0.00,Rainwise IP-100,2013-07-12 12:48:00,
2013-07-12 08:53:00,65.9,65.5,29.22,East,90,2.0,2.0,98,0.00,,,0.00,Rainwise IP-100,2013-07-12 12:53:00,
2013-07-12 08:58:00,66.0,65.5,29.22,NE,45,1.0,3.0,99,0.00,,,0.00,Rainwise IP-100,2013-07-12 12:58:00,
2013-07-12 09:03:00,66.2,66.0,29.22,ENE,67,1.0,2.0,99,0.00,,,0.00,Rainwise IP-100,2013-07-12 13:03:00,
2013-07-12 09:08:00,66.4,66.0,29.23,NE,45,1.0,2.0,99,0.00,,,0.00,Rainwise IP-100,2013-07-12 13:08:00,
2013-07-12 09:13:00,66.7,66.3,29.23,ENE,67,1.0,3.0,99,0.00,,,0.00,Rainwise IP-100,2013-07-12 13:13:00,
2013-07-12 09:18:00,66.8,66.3,29.23,NE,45,2.0,4.0,99,0.00,,,0.00,Rainwise IP-100,2013-07-12 13:18:00,
2013-07-12 09:23:00,67.1,66.7,29.23,ENE,67,1.0,2.0,99,0.00,,,0.00,Rainwise IP-100,2013-07-12 13:23:00,
2013-07-12 09:29:00,67.4,67.0,29.23,ESE,112,0.0,2.0,99,0.00,,,0.00,Rainwise IP-100,2013-07-12 13:29:00,
2013-07-12 09:34:00,67.9,67.5,29.23,ESE,112,0.0,2.0,99,0.00,,,0.00,Rainwise IP-100,2013-07-12 13:34:00,
2013-07-12 09:39:00,68.0,67.5,29.23,ESE,112,1.0,2.0,99,0.00,,,0.00,Rainwise IP-100,2013-07-12 13:39:00,
2013-07-12 09:44:00,68.0,67.0,29.24,ESE,112,2.0,2.0,97,0.00,,,0.00,Rainwise IP-100,2013-07-12 13:44:00,
2013-07-12 09:49:00,68.1,67.5,29.24,NE,45,2.0,5.0,98,0.00,,,0.00,Rainwise IP-100,2013-07-12 13:49:00,
2013-07-12 09:54:00,68.1,66.7,29.24,ENE,67,2.0,4.0,96,0.00,,,0.00,Rainwise IP-100,2013-07-12 13:54:00,
2013-07-12 09:59:00,68.3,67.0,29.24,ESE,112,0.0,4.0,96,0.00,,,0.00,Rainwise IP-100,2013-07-12 13:59:00,
2013-07-12 10:04:00,68.6,67.0,29.24,NNE,22,1.0,3.0,96,0.00,,,0.00,Rainwise IP-100,2013-07-12 14:04:00,
2013-07-12 10:09:00,68.9,67.0,29.25,North,360,1.0,2.0,95,0.00,,,0.00,Rainwise IP-100,2013-07-12 14:09:00,
2013-07-12 10:14:00,69.5,67.5,29.25,East,90,2.0,2.0,93,0.00,,,0.00,Rainwise IP-100,2013-07-12 14:14:00,
2013-07-12 10:19:00,69.8,67.0,29.25,ENE,67,2.0,4.0,92,0.00,,,0.00,Rainwise IP-100,2013-07-12 14:19:00,
2013-07-12 10:24:00,69.8,66.0,29.25,SE,135,2.0,4.0,88,0.00,,,0.00,Rainwise IP-100,2013-07-12 14:24:00,
2013-07-12 10:30:00,69.7,66.7,29.25,ESE,112,4.0,4.0,91,0.00,,,0.00,Rainwise IP-100,2013-07-12 14:30:00,
2013-07-12 10:36:00,70.1,68.5,29.26,SE,135,1.0,2.0,94,0.00,,,0.00,Rainwise IP-100,2013-07-12 14:36:00,
2013-07-12 10:41:00,70.5,67.5,29.26,NE,45,1.0,2.0,90,0.00,,,0.00,Rainwise IP-100,2013-07-12 14:41:00,
2013-07-12 10:46:00,70.9,67.5,29.26,NNE,22,1.0,2.0,89,0.00,,,0.00,Rainwise IP-100,2013-07-12 14:46:00,
2013-07-12 10:51:00,71.2,68.0,29.26,NNW,337,0.0,2.0,89,0.00,,,0.00,Rainwise IP-100,2013-07-12 14:51:00,
2013-07-12 10:56:00,71.3,67.5,29.26,NE,45,2.0,2.0,88,0.00,,,0.00,Rainwise IP-100,2013-07-12 14:56:00,
2013-07-12 11:01:00,71.2,67.0,29.26,ENE,67,1.0,2.0,87,0.00,,,0.00,Rainwise IP-100,2013-07-12 15:01:00,
2013-07-12 11:06:00,71.1,67.5,29.26,NE,45,1.0,3.0,89,0.00,,,0.00,Rainwise IP-100,2013-07-12 15:06:00,
2013-07-12 11:11:00,71.2,66.7,29.27,North,360,2.0,4.0,86,0.00,,,0.00,Rainwise IP-100,2013-07-12 15:11:00,
2013-07-12 11:16:00,71.6,66.7,29.27,North,360,1.0,4.0,85,0.00,,,0.00,Rainwise IP-100,2013-07-12 15:16:00,
2013-07-12 11:21:00,71.9,67.0,29.27,North,360,1.0,2.0,85,0.00,,,0.00,Rainwise IP-100,2013-07-12 15:21:00,
2013-07-12 11:26:00,71.8,66.7,29.27,North,360,1.0,4.0,85,0.00,,,0.00,Rainwise IP-100,2013-07-12 15:26:00,
2013-07-12 11:32:00,71.8,67.0,29.27,NE,45,1.0,4.0,86,0.00,,,0.00,Rainwise IP-100,2013-07-12 15:32:00,
2013-07-12 11:37:00,71.7,67.0,29.27,NE,45,2.0,3.0,86,0.00,,,0.00,Rainwise IP-100,2013-07-12 15:37:00,
2013-07-12 11:42:00,71.6,66.7,29.27,NE,45,1.0,4.0,85,0.00,,,0.00,Rainwise IP-100,2013-07-12 15:42:00,
2013-07-12 11:47:00,71.4,66.3,29.27,East,90,2.0,2.0,85,0.00,,,0.00,Rainwise IP-100,2013-07-12 15:47:00,
2013-07-12 11:52:00,71.5,67.0,29.27,NE,45,2.0,4.0,86,0.00,,,0.00,Rainwise IP-100,2013-07-12 15:52:00,
2013-07-12 11:57:00,71.7,66.7,29.27,SE,135,2.0,3.0,85,0.00,,,0.00,Rainwise IP-100,2013-07-12 15:57:00,
2013-07-12 12:02:00,71.6,67.0,29.27,West,270,0.0,3.0,86,0.00,,,0.00,Rainwise IP-100,2013-07-12 16:02:00,
2013-07-12 12:07:00,71.6,66.7,29.27,North,360,2.0,3.0,84,0.00,,,0.00,Rainwise IP-100,2013-07-12 16:07:00,
2013-07-12 12:12:00,71.9,66.7,29.27,North,360,0.0,2.0,83,0.00,,,0.00,Rainwise IP-100,2013-07-12 16:12:00,
2013-07-12 12:17:00,72.1,67.0,29.27,North,360,2.0,2.0,85,0.00,,,0.00,Rainwise IP-100,2013-07-12 16:17:00,
2013-07-12 12:22:00,72.4,66.7,29.27,North,360,1.0,5.0,83,0.00,,,0.00,Rainwise IP-100,2013-07-12 16:22:00,
2013-07-12 12:28:00,72.6,67.5,29.28,NNE,22,2.0,3.0,84,0.00,,,0.00,Rainwise IP-100,2013-07-12 16:28:00,
2013-07-12 12:33:00,72.3,66.7,29.28,NNE,22,1.0,3.0,83,0.00,,,0.00,Rainwise IP-100,2013-07-12 16:33:00,
2013-07-12 12:38:00,72.6,66.7,29.28,North,360,3.0,4.0,81,0.00,,,0.00,Rainwise IP-100,2013-07-12 16:38:00,
2013-07-12 12:43:00,72.6,66.7,29.28,NNE,22,2.0,3.0,81,0.00,,,0.00,Rainwise IP-100,2013-07-12 16:43:00,
2013-07-12 12:48:00,72.9,66.7,29.28,NNE,22,1.0,2.0,80,0.00,,,0.00,Rainwise IP-100,2013-07-12 16:48:00,
2013-07-12 12:53:00,73.1,66.7,29.28,NNW,337,3.0,4.0,80,0.00,,,0.00,Rainwise IP-100,2013-07-12 16:53:00,
2013-07-12 12:59:00,72.9,66.7,29.28,East,90,3.0,3.0,80,0.00,,,0.00,Rainwise IP-100,2013-07-12 16:59:00,
2013-07-12 13:04:00,72.7,67.5,29.29,North,360,2.0,4.0,84,0.00,,,0.00,Rainwise IP-100,2013-07-12 17:04:00,
2013-07-12 13:09:00,73.1,66.7,29.29,SE,135,2.0,2.0,81,0.00,,,0.00,Rainwise IP-100,2013-07-12 17:09:00,
2013-07-12 13:14:00,73.2,66.7,29.29,NNE,22,0.0,3.0,79,0.00,,,0.00,Rainwise IP-100,2013-07-12 17:14:00,
2013-07-12 13:20:00,73.9,67.5,29.29,WNW,292,1.0,3.0,80,0.00,,,0.00,Rainwise IP-100,2013-07-12 17:20:00,
2013-07-12 13:26:00,73.8,66.7,29.29,NNE,22,2.0,4.0,78,0.00,,,0.00,Rainwise IP-100,2013-07-12 17:26:00,
2013-07-12 13:31:00,74.3,68.0,29.29,North,360,1.0,2.0,80,0.00,,,0.00,Rainwise IP-100,2013-07-12 17:31:00,
2013-07-12 13:36:00,74.1,66.7,29.29,NW,315,0.0,4.0,78,0.00,,,0.00,Rainwise IP-100,2013-07-12 17:36:00,
2013-07-12 13:43:00,74.9,68.0,29.29,North,360,4.0,4.0,78,0.00,,,0.00,Rainwise IP-100,2013-07-12 17:43:00,
2013-07-12 13:49:00,74.9,67.5,29.30,NW,315,1.0,4.0,77,0.00,,,0.00,Rainwise IP-100,2013-07-12 17:49:00,
2013-07-12 13:54:00,74.7,67.0,29.30,NE,45,2.0,4.0,77,0.00,,,0.00,Rainwise IP-100,2013-07-12 17:54:00,
2013-07-12 13:59:00,74.8,66.7,29.30,NW,315,1.0,4.0,76,0.00,,,0.00,Rainwise IP-100,2013-07-12 17:59:00,
2013-07-12 14:04:00,74.8,68.0,29.29,NE,45,2.0,4.0,79,0.00,,,0.00,Rainwise IP-100,2013-07-12 18:04:00,
2013-07-12 14:10:00,75.1,67.5,29.30,NNE,22,2.0,3.0,77,0.00,,,0.00,Rainwise IP-100,2013-07-12 18:10:00,
2013-07-12 14:15:00,75.4,66.3,29.29,NNE,22,3.0,5.0,73,0.00,,,0.00,Rainwise IP-100,2013-07-12 18:15:00,
2013-07-12 14:22:00,75.3,67.0,29.29,NE,45,1.0,3.0,75,0.00,,,0.00,Rainwise IP-100,2013-07-12 18:22:00,
2013-07-12 14:27:00,75.2,68.5,29.30,NE,45,1.0,5.0,79,0.00,,,0.00,Rainwise IP-100,2013-07-12 18:27:00,
2013-07-12 14:32:00,75.3,68.0,29.30,SE,135,2.0,5.0,77,0.00,,,0.00,Rainwise IP-100,2013-07-12 18:32:00,
2013-07-12 14:37:00,75.7,67.0,29.30,NNE,22,2.0,4.0,75,0.00,,,0.00,Rainwise IP-100,2013-07-12 18:37:00,
2013-07-12 14:42:00,75.8,66.7,29.31,NE,45,2.0,4.0,73,0.00,,,0.00,Rainwise IP-100,2013-07-12 18:42:00,
2013-07-12 14:47:00,76.1,65.5,29.31,North,360,2.0,5.0,70,0.00,,,0.00,Rainwise IP-100,2013-07-12 18:47:00,
2013-07-12 14:52:00,76.1,66.7,29.31,ESE,112,0.0,4.0,73,0.00,,,0.00,Rainwise IP-100,2013-07-12 18:52:00,
2013-07-12 14:57:00,76.1,67.0,29.30,North,360,2.0,3.0,74,0.00,,,0.00,Rainwise IP-100,2013-07-12 18:57:00,
2013-07-12 15:02:00,75.8,68.0,29.31,East,90,0.0,4.0,77,0.00,,,0.00,Rainwise IP-100,2013-07-12 19:02:00,
2013-07-12 15:07:00,75.8,67.5,29.31,NNE,22,2.0,2.0,75,0.00,,,0.00,Rainwise IP-100,2013-07-12 19:07:00,
2013-07-12 15:12:00,76.2,66.3,29.31,NNE,22,2.0,4.0,71,0.00,,,0.00,Rainwise IP-100,2013-07-12 19:12:00,
2013-07-12 15:17:00,75.5,66.0,29.31,NNE,22,2.0,6.0,72,0.00,,,0.00,Rainwise IP-100,2013-07-12 19:17:00,
2013-07-12 15:23:00,75.3,66.0,29.30,ENE,67,1.0,5.0,72,0.00,,,0.00,Rainwise IP-100,2013-07-12 19:23:00,
2013-07-12 15:28:00,75.3,66.7,29.30,North,360,2.0,4.0,74,0.00,,,0.00,Rainwise IP-100,2013-07-12 19:28:00,
2013-07-12 15:33:00,75.9,66.3,29.30,NE,45,2.0,3.0,72,0.00,,,0.00,Rainwise IP-100,2013-07-12 19:33:00,
2013-07-12 15:38:00,75.9,66.3,29.29,NE,45,1.0,3.0,72,0.00,,,0.00,Rainwise IP-100,2013-07-12 19:38:00,
2013-07-12 15:43:00,75.3,66.0,29.29,NNE,22,2.0,5.0,72,0.00,,,0.00,Rainwise IP-100,2013-07-12 19:43:00,
2013-07-12 15:48:00,75.1,66.0,29.29,North,360,2.0,6.0,73,0.00,,,0.00,Rainwise IP-100,2013-07-12 19:48:00,
2013-07-12 15:53:00,74.9,66.3,29.29,NE,45,2.0,4.0,74,0.00,,,0.00,Rainwise IP-100,2013-07-12 19:53:00,
2013-07-12 15:58:00,74.8,66.0,29.28,East,90,0.0,3.0,74,0.00,,,0.00,Rainwise IP-100,2013-07-12 19:58:00,
2013-07-12 16:03:00,74.9,66.7,29.28,NE,45,1.0,4.0,75,0.00,,,0.00,Rainwise IP-100,2013-07-12 20:03:00,
2013-07-12 16:08:00,74.7,66.0,29.28,NE,45,2.0,4.0,74,0.00,,,0.00,Rainwise IP-100,2013-07-12 20:08:00,
2013-07-12 16:14:00,74.2,66.3,29.28,NE,45,3.0,5.0,76,0.00,,,0.00,Rainwise IP-100,2013-07-12 20:14:00,
2013-07-12 16:21:00,74.3,66.3,29.27,ESE,112,2.0,5.0,75,0.00,,,0.00,Rainwise IP-100,2013-07-12 20:21:00,
2013-07-12 16:26:00,74.0,66.3,29.27,East,90,1.0,4.0,77,0.00,,,0.00,Rainwise IP-100,2013-07-12 20:26:00,
2013-07-12 16:31:00,73.9,66.0,29.27,NE,45,2.0,3.0,75,0.00,,,0.00,Rainwise IP-100,2013-07-12 20:31:00,
2013-07-12 16:36:00,73.9,66.3,29.27,NE,45,3.0,4.0,76,0.00,,,0.00,Rainwise IP-100,2013-07-12 20:36:00,
2013-07-12 16:41:00,73.9,67.5,29.27,NE,45,1.0,4.0,80,0.00,,,0.00,Rainwise IP-100,2013-07-12 20:41:00,
2013-07-12 16:46:00,73.6,66.3,29.27,NE,45,2.0,4.0,77,0.00,,,0.00,Rainwise IP-100,2013-07-12 20:46:00,
2013-07-12 16:51:00,73.3,66.3,29.27,NNE,22,2.0,6.0,78,0.00,,,0.00,Rainwise IP-100,2013-07-12 20:51:00,
2013-07-12 16:56:00,73.5,66.7,29.27,NNE,22,2.0,4.0,78,0.00,,,0.00,Rainwise IP-100,2013-07-12 20:56:00,
2013-07-12 17:01:00,73.4,65.0,29.26,East,90,1.0,4.0,75,0.00,,,0.00,Rainwise IP-100,2013-07-12 21:01:00,
2013-07-12 17:06:00,73.3,66.0,29.27,North,360,2.0,3.0,77,0.00,,,0.00,Rainwise IP-100,2013-07-12 21:06:00,
2013-07-12 17:12:00,73.3,66.0,29.27,NE,45,1.0,4.0,77,0.00,,,0.00,Rainwise IP-100,2013-07-12 21:12:00,
2013-07-12 17:17:00,73.2,66.3,29.27,East,90,1.0,3.0,78,0.00,,,0.00,Rainwise IP-100,2013-07-12 21:17:00,
2013-07-12 17:23:00,73.2,66.0,29.27,NE,45,2.0,3.0,77,0.00,,,0.00,Rainwise IP-100,2013-07-12 21:23:00,
2013-07-12 17:28:00,72.9,65.0,29.26,NNE,22,1.0,3.0,76,0.00,,,0.00,Rainwise IP-100,2013-07-12 21:28:00,
2013-07-12 17:33:00,72.8,65.0,29.26,NE,45,0.0,2.0,77,0.00,,,0.00,Rainwise IP-100,2013-07-12 21:33:00,
2013-07-12 17:38:00,72.5,65.5,29.26,ESE,112,0.0,3.0,78,0.00,,,0.00,Rainwise IP-100,2013-07-12 21:38:00,
2013-07-12 17:43:00,72.3,65.0,29.25,ESE,112,1.0,2.0,78,0.00,,,0.00,Rainwise IP-100,2013-07-12 21:43:00,
2013-07-12 17:48:00,72.1,65.0,29.26,East,90,2.0,2.0,78,0.00,,,0.00,Rainwise IP-100,2013-07-12 21:48:00,
2013-07-12 17:53:00,71.9,65.0,29.25,NE,45,1.0,2.0,79,0.00,,,0.00,Rainwise IP-100,2013-07-12 21:53:00,
2013-07-12 17:58:00,71.7,65.0,29.25,NE,45,1.0,4.0,80,0.00,,,0.00,Rainwise IP-100,2013-07-12 21:58:00,
2013-07-12 18:04:00,71.5,66.0,29.25,ENE,67,2.0,3.0,82,0.00,,,0.00,Rainwise IP-100,2013-07-12 22:04:00,
2013-07-12 18:11:00,71.3,64.5,29.25,NNE,22,0.0,2.0,79,0.00,,,0.00,Rainwise IP-100,2013-07-12 22:11:00,
2013-07-12 18:16:00,71.1,65.0,29.24,East,90,0.0,4.0,81,0.00,,,0.00,Rainwise IP-100,2013-07-12 22:16:00,
2013-07-12 18:22:00,71.1,65.0,29.24,NE,45,0.0,2.0,82,0.00,,,0.00,Rainwise IP-100,2013-07-12 22:22:00,
2013-07-12 18:27:00,70.9,65.0,29.25,NNE,22,1.0,2.0,81,0.00,,,0.00,Rainwise IP-100,2013-07-12 22:27:00,
2013-07-12 18:33:00,70.9,65.0,29.25,NNE,22,0.0,0.0,82,0.00,,,0.00,Rainwise IP-100,2013-07-12 22:33:00,
2013-07-12 18:38:00,70.8,65.5,29.25,NE,45,1.0,2.0,83,0.00,,,0.00,Rainwise IP-100,2013-07-12 22:38:00,
2013-07-12 18:43:00,70.7,65.0,29.25,ENE,67,0.0,2.0,82,0.00,,,0.00,Rainwise IP-100,2013-07-12 22:43:00,
2013-07-12 18:48:00,70.7,65.0,29.25,ENE,67,2.0,2.0,82,0.00,,,0.00,Rainwise IP-100,2013-07-12 22:48:00,
2013-07-12 18:53:00,70.6,65.0,29.25,ENE,67,0.0,2.0,82,0.00,,,0.00,Rainwise IP-100,2013-07-12 22:53:00,
2013-07-12 18:58:00,70.4,65.0,29.24,NE,45,2.0,2.0,82,0.00,,,0.00,Rainwise IP-100,2013-07-12 22:58:00,
2013-07-12 19:03:00,70.3,64.0,29.24,ESE,112,2.0,2.0,80,0.00,,,0.00,Rainwise IP-100,2013-07-12 23:03:00,
2013-07-12 19:09:00,70.2,63.0,29.25,ESE,112,0.0,2.0,78,0.00,,,0.00,Rainwise IP-100,2013-07-12 23:09:00,
2013-07-12 19:14:00,70.1,63.0,29.25,ESE,112,0.0,0.0,78,0.00,,,0.00,Rainwise IP-100,2013-07-12 23:14:00,
2013-07-12 19:20:00,69.9,64.5,29.24,ESE,112,0.0,0.0,82,0.00,,,0.00,Rainwise IP-100,2013-07-12 23:20:00,
2013-07-12 19:26:00,69.8,64.5,29.25,ESE,112,0.0,0.0,83,0.00,,,0.00,Rainwise IP-100,2013-07-12 23:26:00,
2013-07-12 19:31:00,69.6,64.0,29.25,ESE,112,0.0,0.0,82,0.00,,,0.00,Rainwise IP-100,2013-07-12 23:31:00,
2013-07-12 19:36:00,69.5,64.0,29.25,ESE,112,0.0,0.0,82,0.00,,,0.00,Rainwise IP-100,2013-07-12 23:36:00,
2013-07-12 19:42:00,69.2,64.0,29.25,ESE,112,0.0,0.0,83,0.00,,,0.00,Rainwise IP-100,2013-07-12 23:42:00,
2013-07-12 19:47:00,69.0,63.5,29.25,ESE,112,0.0,0.0,83,0.00,,,0.00,Rainwise IP-100,2013-07-12 23:47:00,
2013-07-12 19:53:00,68.7,64.0,29.25,ESE,112,0.0,0.0,85,0.00,,,0.00,Rainwise IP-100,2013-07-12 23:53:00,
2013-07-12 19:58:00,68.5,64.0,29.24,ESE,112,0.0,0.0,85,0.00,,,0.00,Rainwise IP-100,2013-07-12 23:58:00,
2013-07-12 20:03:00,68.2,63.5,29.24,ESE,112,0.0,0.0,86,0.00,,,0.00,Rainwise IP-100,2013-07-13 00:03:00,
2013-07-12 20:08:00,67.9,64.5,29.23,ESE,112,0.0,0.0,88,0.00,,,0.00,Rainwise IP-100,2013-07-13 00:08:00,
2013-07-12 20:14:00,67.7,64.5,29.23,ESE,112,0.0,0.0,90,0.00,,,0.00,Rainwise IP-100,2013-07-13 00:14:00,
2013-07-12 20:20:00,67.5,65.5,29.23,ESE,112,0.0,0.0,92,0.00,,,0.00,Rainwise IP-100,2013-07-13 00:20:00,
2013-07-12 20:25:00,67.4,66.3,29.23,ESE,112,0.0,0.0,95,0.00,,,0.00,Rainwise IP-100,2013-07-13 00:25:00,
2013-07-12 20:30:00,67.1,66.0,29.23,ESE,112,0.0,0.0,96,0.00,,,0.00,Rainwise IP-100,2013-07-13 00:30:00,
2013-07-12 20:35:00,66.8,66.0,29.23,ESE,112,0.0,0.0,97,0.00,,,0.00,Rainwise IP-100,2013-07-13 00:35:00,
2013-07-12 20:40:00,66.6,66.3,29.23,ESE,112,0.0,0.0,98,0.00,,,0.00,Rainwise IP-100,2013-07-13 00:40:00,
2013-07-12 20:45:00,66.4,66.0,29.23,ESE,112,0.0,0.0,98,0.00,,,0.00,Rainwise IP-100,2013-07-13 00:45:00,
2013-07-12 20:51:00,66.2,65.5,29.23,NW,315,0.0,1.0,97,0.00,,,0.00,Rainwise IP-100,2013-07-13 00:51:00,
2013-07-12 20:56:00,65.9,64.5,29.23,NW,315,0.0,1.0,96,0.00,,,0.00,Rainwise IP-100,2013-07-13 00:56:00,
2013-07-12 21:01:00,65.4,64.5,29.23,NW,315,0.0,0.0,97,0.00,,,0.00,Rainwise IP-100,2013-07-13 01:01:00,
2013-07-12 21:07:00,65.1,64.0,29.23,NW,315,0.0,0.0,97,0.00,,,0.00,Rainwise IP-100,2013-07-13 01:07:00,
2013-07-12 21:12:00,65.2,64.5,29.23,NW,315,0.0,0.0,98,0.00,,,0.00,Rainwise IP-100,2013-07-13 01:12:00,
2013-07-12 21:17:00,65.2,64.5,29.23,NW,315,0.0,0.0,98,0.00,,,0.00,Rainwise IP-100,2013-07-13 01:17:00,
2013-07-12 21:23:00,65.0,64.5,29.23,NW,315,0.0,0.0,98,0.00,,,0.00,Rainwise IP-100,2013-07-13 01:23:00,
2013-07-12 21:28:00,64.8,64.5,29.23,NW,315,0.0,0.0,98,0.00,,,0.00,Rainwise IP-100,2013-07-13 01:28:00,
2013-07-12 21:34:00,64.6,64.0,29.22,NW,315,0.0,0.0,98,0.00,,,0.00,Rainwise IP-100,2013-07-13 01:34:00,
2013-07-12 21:40:00,64.4,64.0,29.23,NW,315,0.0,0.0,98,0.00,,,0.00,Rainwise IP-100,2013-07-13 01:40:00,
2013-07-12 21:46:00,64.4,64.0,29.23,NW,315,0.0,0.0,98,0.00,,,0.00,Rainwise IP-100,2013-07-13 01:46:00,
2013-07-12 21:51:00,64.3,64.0,29.23,NW,315,0.0,0.0,98,0.00,,,0.00,Rainwise IP-100,2013-07-13 01:51:00,
2013-07-12 21:56:00,64.3,64.0,29.23,NW,315,0.0,0.0,98,0.00,,,0.00,Rainwise IP-100,2013-07-13 01:56:00,
2013-07-12 22:01:00,64.0,63.5,29.23,NW,315,0.0,0.0,98,0.00,,,0.00,Rainwise IP-100,2013-07-13 02:01:00,
2013-07-12 22:06:00,63.9,63.5,29.23,NW,315,0.0,0.0,98,0.00,,,0.00,Rainwise IP-100,2013-07-13 02:06:00,
2013-07-12 22:11:00,63.7,63.0,29.23,NW,315,0.0,0.0,98,0.00,,,0.00,Rainwise IP-100,2013-07-13 02:11:00,
2013-07-12 22:16:00,63.6,63.0,29.24,NW,315,0.0,0.0,98,0.00,,,0.00,Rainwise IP-100,2013-07-13 02:16:00,
2013-07-12 22:23:00,63.4,63.0,29.24,NW,315,0.0,0.0,98,0.00,,,0.00,Rainwise IP-100,2013-07-13 02:23:00,
2013-07-12 22:29:00,63.2,62.5,29.23,NW,315,0.0,0.0,98,0.00,,,0.00,Rainwise IP-100,2013-07-13 02:29:00,
2013-07-12 22:34:00,63.1,62.5,29.24,NW,315,0.0,0.0,98,0.00,,,0.00,Rainwise IP-100,2013-07-13 02:34:00,
2013-07-12 22:39:00,63.2,62.5,29.23,NW,315,0.0,0.0,98,0.00,,,0.00,Rainwise IP-100,2013-07-13 02:39:00,
2013-07-12 22:45:00,63.0,62.5,29.23,NW,315,0.0,0.0,98,0.00,,,0.00,Rainwise IP-100,2013-07-13 02:45:00,
2013-07-12 22:50:00,62.9,62.5,29.24,NW,315,0.0,0.0,98,0.00,,,0.00,Rainwise IP-100,2013-07-13 02:50:00,
2013-07-12 22:55:00,62.9,62.5,29.23,NW,315,0.0,0.0,98,0.00,,,0.00,Rainwise IP-100,2013-07-13 02:55:00,
2013-07-12 23:00:00,62.9,62.5,29.23,NW,315,0.0,0.0,98,0.00,,,0.00,Rainwise IP-100,2013-07-13 03:00:00,
2013-07-12 23:06:00,62.8,62.5,29.23,NW,315,0.0,0.0,98,0.00,,,0.00,Rainwise IP-100,2013-07-13 03:06:00,
2013-07-12 23:11:00,62.7,62.0,29.23,NW,315,0.0,0.0,98,0.00,,,0.00,Rainwise IP-100,2013-07-13 03:11:00,
2013-07-12 23:16:00,62.7,62.0,29.23,NW,315,0.0,0.0,98,0.00,,,0.00,Rainwise IP-100,2013-07-13 03:16:00,
2013-07-12 23:22:00,62.6,62.0,29.23,NW,315,0.0,0.0,98,0.00,,,0.00,Rainwise IP-100,2013-07-13 03:22:00,
2013-07-12 23:27:00,62.5,62.0,29.23,NW,315,0.0,0.0,98,0.00,,,0.00,Rainwise IP-100,2013-07-13 03:27:00,
2013-07-12 23:32:00,62.4,62.0,29.23,NW,315,0.0,0.0,98,0.00,,,0.00,Rainwise IP-100,2013-07-13 03:32:00,
2013-07-12 23:37:00,62.5,62.0,29.23,NW,315,0.0,0.0,98,0.00,,,0.00,Rainwise IP-100,2013-07-13 03:37:00,
2013-07-12 23:43:00,62.5,62.0,29.23,NW,315,0.0,0.0,98,0.00,,,0.00,Rainwise IP-100,2013-07-13 03:43:00,
2013-07-12 23:48:00,62.3,62.0,29.24,NW,315,0.0,0.0,98,0.00,,,0.00,Rainwise IP-100,2013-07-13 03:48:00,
2013-07-12 23:53:00,62.3,62.0,29.23,NW,315,0.0,0.0,98,0.00,,,0.00,Rainwise IP-100,2013-07-13 03:53:00,
2013-07-12 23:58:00,62.3,62.0,29.23,NW,315,0.0,0.0,98,0.00,,,0.00,Rainwise IP-100,2013-07-13 03:58:00,